Location: Charlotte
(35.2269°N, 80.8433°W)
Time: 02:10:10
(UTC-05:00)

ISS - Visible Passes

Search period start: 13 December 2017 00:00
Search period end: 23 December 2017 00:00
Orbit: 402 x 407 km, 51.6° (Epoch: 13 December)

Date Brightness Start Highest point End Pass type
(mag) Time Alt. Az. Time Alt. Az. Time Alt. Az.
13 Dec -2.4 18:17:13 10° NNW 18:19:47 21° NNE 18:19:54 21° NE visible
14 Dec -3.0 19:00:53 10° NW 19:03:19 47° NW 19:03:19 47° NW visible
15 Dec -3.5 18:08:43 10° NW 18:11:54 46° NE 18:14:25 15° ESE visible
15 Dec -0.4 19:46:23 10° W 19:47:10 12° WSW 19:47:10 12° WSW visible
16 Dec -1.7 18:53:07 10° WNW 18:55:57 27° SW 18:58:47 10° SSE visible
17 Dec -3.3 18:00:32 10° NW 18:03:47 61° SW 18:07:00 10° SE visible
18 Dec -0.1 18:47:13 10° WSW 18:47:34 10° SW 18:47:54 10° SW visible
19 Dec -0.8 17:52:54 10° WNW 17:55:28 21° SW 17:58:01 10° S visible
